Content
SEND FEEDBACK

Daily
Averages
Monthly
Summary
United States of America

WESTERNPORT, MARYLAND


Home > North America > United States > Maryland
Elevation: 922 feet     Latitude: 39 29N     Longitude: 079 03W

WEATHER
 
SELECT A DAY
Number of Records: 203,870;   Date Range: 5/31/06 - 12/17/14
 
SHARE

PRINT THIS DATA

[ ← Previous Day ]
WEATHER ALMANAC - JULY 12, 2014
[ Next Day → ]
[ °C ]   °F
Weather ElementAverageHighLow
Temperature65.1 °F71.6 °F (1:40 pm)60.8 °F (12:50 am)
Dewpoint57.1 °F64.4 °F (10:15 am) (7:00 pm)
Humidity84.9 %100 % (12:50 am)64 % (11:20 am)
Barometer30.27 in30.31 in (12:45 am)30.20 in (6:40 am)
Wind Speed4.9 mph6.9 mph (1:55 pm)
Weather ElementAverage
Visibility10 mi
Wind DirectionSSW (201.3 °)

Weather ElementTotal
Precipitation---
Cooling Degree Days1.2 (Base 65)
Growing Degree Days16.2 (Base 50)
Averaged from 38 records on July 12, 2014
WEATHER CONDITIONS BREAKOUT
WIND DIRECTION BREAKOUT
WEATHER BY HOUR - JULY 12, 2014
[ °C ]   °F
Local TimeTemperatureDewpointHumidityBarometerVisibilityWind DirectionWind SpeedGust SpeedPrecipitationEventsConditions
12:00 AM62.6 °F62.6 °F100 %30.31 in10.0 miSouth (190°)4.6 mphClear
12:20 AM62.6 °F62.6 °F100 %30.31 in10.0 miSouth (190°)4.6 mphClear
12:40 AM62.6 °F62.6 °F100 %30.31 in10.0 miSSW (200°)3.5 mphClear
1:20 AM62.6 °F62.6 °F100 %30.31 in10.0 miSouth (190°)4.6 mphClear
1:40 AM62.6 °F62.6 °F100 %30.30 in10.0 miSouth (190°)3.5 mphClear
2:20 AM62.6 °F60.8 °F94 %30.29 in10.0 miSSW (210°)3.5 mphClear
2:40 AM62.6 °F59.0 °F88 %30.29 in10.0 miSW (220°)3.5 mphClear
3:00 AM64.4 °F59.0 °F83 %30.29 in10.0 miSW (230°)3.5 mphClear
3:20 AM64.4 °F55.4 °F73 %30.29 in10.0 miSW (220°)4.6 mphClear
3:40 AM62.6 °F59.0 °F88 %30.29 in10.0 miSSW (210°)3.5 mphClear
4:00 AM62.6 °F55.4 °F77 %30.29 in10.0 miSW (220°)4.6 mphClear
4:20 AM64.4 °F57.2 °F77 %30.29 in10.0 miSSW (200°)4.6 mphClear
4:40 AM62.6 °F59.0 °F88 %30.29 in10.0 miSouth (190°)4.6 mphScattered Clouds
5:00 AM62.6 °F60.8 °F94 %30.29 in10.0 miSouth (190°)5.8 mphClear
5:20 AM62.6 °F62.6 °F100 %30.29 in10.0 miSouth (190°)6.9 mphClear
5:45 AM62.6 °F62.6 °F100 %30.29 in10.0 miSSW (200°)5.8 mphScattered Clouds
6:05 AM60.8 °F60.8 °F100 %30.29 in10.0 miSSW (200°)6.9 mphScattered Clouds
6:25 AM62.6 °F0.0 °F30.29 in10.0 miSSW (200°)5.8 mphClear
6:45 AM62.6 °F0.0 °F30.29 in10.0 miSW (230°)4.6 mphClear
7:05 AM62.6 °F62.6 °F100 %30.30 in10.0 miSSW (210°)5.8 mphClear
7:25 AM64.4 °F64.4 °F100 %30.29 in10.0 miSSW (210°)5.8 mphClear
7:45 AM64.4 °F64.4 °F100 %30.29 in10.0 miSSW (210°)5.8 mphClear
8:05 AM64.4 °F64.4 °F100 %30.30 in10.0 miSW (220°)4.6 mphClear
8:25 AM68.0 °F64.4 °F88 %30.29 in10.0 miSSW (210°)4.6 mphClear
8:45 AM68.0 °F64.4 °F88 %30.30 in10.0 miSSW (210°)5.8 mphClear
9:05 AM69.8 °F62.6 °F78 %30.29 in10.0 miSSW (200°)4.6 mphClear
9:25 AM69.8 °F62.6 °F78 %30.29 in10.0 miSouth (190°)4.6 mphClear
9:45 AM71.6 °F60.8 °F69 %30.30 in10.0 miWSW (250°)3.5 mphClear
9:50 AM71.6 °F59.0 °F64 %30.29 in10.0 miSW (230°)5.8 mphClear
8:25 PM69.8 °F57.2 °F64 %30.21 in10.0 miSouth (190°)4.6 mphClear
8:45 PM68.0 °F59.0 °F73 %30.21 in10.0 miSouth (190°)3.5 mphClear
9:05 PM68.0 °F59.0 °F73 %30.21 in10.0 miSouth (180°)4.6 mphClear
9:25 PM68.0 °F57.2 °F68 %30.21 in10.0 miSouth (180°)3.5 mphClear
9:45 PM66.2 °F55.4 °F68 %30.21 in10.0 miSouth (170°)5.8 mphClear
10:05 PM68.0 °F55.4 °F64 %30.21 in10.0 miSouth (180°)5.8 mphClear
11:05 PM66.2 °F57.2 °F73 %30.21 in10.0 miSouth (190°)5.8 mphClear
11:25 PM66.2 °F57.2 °F73 %30.20 in10.0 miSouth (180°)5.8 mphClear
11:45 PM66.2 °F57.2 °F73 %30.20 in10.0 miSouth (180°)6.9 mphClear
Hourly data recorded from K2G4, located miles away from Westernport, Maryland







STORIES FROM OUR PARTNERS